Wetterdaten: Montag, 23.12.2013
Datum Zeit Temperatur Luftfeuchte Luftdruck Regen Wind Richtung Richtung Taupunkt Windchill Windben
23.12.2013 00:00 1,6 C 85 % 1023,5 hPa 0,0 l/m 0,0 km/h (0 Bft) S 180 -0,6 C 0,0 C 0,0 km/h (0 Bft)
23.12.2013 00:05 1,8 C 85 % 1023,5 hPa 0,0 l/m 0,0 km/h (0 Bft) S 180 -0,4 C 0,0 C 0,0 km/h (0 Bft)
23.12.2013 00:10 2,2 C 85 % 1023,5 hPa 0,0 l/m 0,0 km/h (0 Bft) S 180 -0,1 C 0,0 C 0,0 km/h (0 Bft)
23.12.2013 00:15 3,1 C 83 % 1023,5 hPa 0,0 l/m 0,0 km/h (0 Bft) S 180 0,5 C 0,0 C 0,0 km/h (0 Bft)
23.12.2013 00:20 3,4 C 82 % 1023,4 hPa 0,0 l/m 0,0 km/h (0 Bft) S 180 0,6 C 0,0 C 0,0 km/h (0 Bft)
23.12.2013 00:25 3,6 C 79 % 1023,4 hPa 0,0 l/m 0,0 km/h (0 Bft) S 180 0,3 C 0,0 C 0,0 km/h (0 Bft)
23.12.2013 00:29 3,4 C 79 % 1023,4 hPa 0,0 l/m 0,0 km/h (0 Bft) S 180 0,1 C 0,0 C 0,0 km/h (0 Bft)
23.12.2013 00:30 3,4 C 79 % 1023,4 hPa 0,0 l/m 0,0 km/h (0 Bft) S 180 0,1 C 0,0 C 0,0 km/h (0 Bft)
23.12.2013 00:35 3,9 C 78 % 1023,4 hPa 0,0 l/m 0,0 km/h (0 Bft) S 180 0,4 C 0,0 C 0,0 km/h (0 Bft)
23.12.2013 00:40 4,5 C 76 % 1023,4 hPa 0,0 l/m 0,0 km/h (0 Bft) S 180 0,6 C 0,0 C 0,0 km/h (0 Bft)
23.12.2013 00:45 4,0 C 75 % 1023,4 hPa 0,0 l/m 0,0 km/h (0 Bft) S 180 -0,0 C 0,0 C 0,0 km/h (0 Bft)
23.12.2013 00:50 3,6 C 76 % 1023,4 hPa 0,0 l/m 0,0 km/h (0 Bft) S 180 -0,2 C 0,0 C 0,0 km/h (0 Bft)
23.12.2013 00:55 3,5 C 76 % 1023,4 hPa 0,0 l/m 0,0 km/h (0 Bft) S 180 -0,3 C 0,0 C 0,0 km/h (0 Bft)
23.12.2013 01:00 3,4 C 76 % 1023,5 hPa 0,0 l/m 0,0 km/h (0 Bft) S 180 -0,4 C 0,0 C 0,0 km/h (0 Bft)
23.12.2013 01:05 3,1 C 77 % 1023,5 hPa 0,0 l/m 0,0 km/h (0 Bft) S 180 -0,5 C 0,0 C 0,0 km/h (0 Bft)
23.12.2013 01:10 3,2 C 78 % 1023,5 hPa 0,0 l/m 0,0 km/h (0 Bft) S 180 -0,3 C 0,0 C 0,0 km/h (0 Bft)
23.12.2013 01:15 3,2 C 78 % 1023,5 hPa 0,0 l/m 0,0 km/h (0 Bft) S 180 -0,3 C 0,0 C 0,0 km/h (0 Bft)
23.12.2013 01:20 3,1 C 78 % 1023,3 hPa 0,0 l/m 0,0 km/h (0 Bft) S 180 -0,4 C 0,0 C 0,0 km/h (0 Bft)
23.12.2013 01:25 3,0 C 77 % 1023,3 hPa 0,0 l/m 0,0 km/h (0 Bft) S 180 -0,6 C 0,0 C 0,0 km/h (0 Bft)
23.12.2013 01:30 2,3 C 78 % 1023,3 hPa 0,0 l/m 0,0 km/h (0 Bft) S 180 -1,1 C 0,0 C 0,0 km/h (0 Bft)
23.12.2013 01:35 2,1 C 78 % 1023,3 hPa 0,0 l/m 0,0 km/h (0 Bft) S 180 -1,3 C 0,0 C 0,0 km/h (0 Bft)
23.12.2013 01:40 2,3 C 79 % 1023,2 hPa 0,0 l/m 0,0 km/h (0 Bft) S 180 -1,0 C 0,0 C 0,0 km/h (0 Bft)
23.12.2013 01:45 2,5 C 79 % 1023,2 hPa 0,0 l/m 0,0 km/h (0 Bft) S 180 -0,8 C 0,0 C 0,0 km/h (0 Bft)
23.12.2013 01:50 3,2 C 79 % 1023,2 hPa 0,0 l/m 0,0 km/h (0 Bft) S 180 -0,1 C 0,0 C 0,0 km/h (0 Bft)
23.12.2013 01:55 3,6 C 78 % 1023,2 hPa 0,0 l/m 0,0 km/h (0 Bft) S 180 0,1 C 0,0 C 0,0 km/h (0 Bft)
23.12.2013 02:00 4,1 C 76 % 1023,2 hPa 0,0 l/m 0,0 km/h (0 Bft) S 180 0,3 C 0,0 C 0,0 km/h (0 Bft)
23.12.2013 02:05 4,6 C 72 % 1023,2 hPa 0,0 l/m 0,0 km/h (0 Bft) S 180 -0,0 C 0,0 C 0,0 km/h (0 Bft)
23.12.2013 02:10 4,8 C 71 % 1023,2 hPa 0,0 l/m 0,0 km/h (0 Bft) S 180 -0,0 C 0,0 C 0,0 km/h (0 Bft)
23.12.2013 02:15 4,0 C 72 % 1023,2 hPa 0,0 l/m 0,0 km/h (0 Bft) S 180 -0,6 C 0,0 C 0,0 km/h (0 Bft)
23.12.2013 02:20 3,9 C 72 % 1022,8 hPa 0,0 l/m 0,0 km/h (0 Bft) S 180 -0,7 C 0,0 C 0,0 km/h (0 Bft)
23.12.2013 02:25 3,7 C 73 % 1022,8 hPa 0,0 l/m 0,0 km/h (0 Bft) S 180 -0,7 C 0,0 C 0,0 km/h (0 Bft)
23.12.2013 02:30 3,5 C 74 % 1022,8 hPa 0,0 l/m 0,0 km/h (0 Bft) S 180 -0,7 C 0,0 C 0,0 km/h (0 Bft)
23.12.2013 02:35 3,0 C 74 % 1022,8 hPa 0,0 l/m 0,0 km/h (0 Bft) S 180 -1,2 C 0,0 C 0,0 km/h (0 Bft)
23.12.2013 02:40 2,5 C 75 % 1022,9 hPa 0,0 l/m 0,0 km/h (0 Bft) S 180 -1,5 C 0,0 C 0,0 km/h (0 Bft)
23.12.2013 02:45 2,4 C 76 % 1022,9 hPa 0,0 l/m 0,0 km/h (0 Bft) S 180 -1,4 C 0,0 C 0,0 km/h (0 Bft)
23.12.2013 02:50 2,6 C 78 % 1022,9 hPa 0,0 l/m 0,0 km/h (0 Bft) S 180 -0,8 C 0,0 C 0,0 km/h (0 Bft)
23.12.2013 02:55 2,2 C 77 % 1022,9 hPa 0,0 l/m 0,0 km/h (0 Bft) S 180 -1,4 C 0,0 C 0,0 km/h (0 Bft)
23.12.2013 03:00 1,9 C 78 % 1022,9 hPa 0,0 l/m 0,0 km/h (0 Bft) S 180 -1,5 C 0,0 C 0,0 km/h (0 Bft)
23.12.2013 03:05 0,9 C 77 % 1022,9 hPa 0,0 l/m 0,0 km/h (0 Bft) S 180 -2,7 C 0,0 C 0,0 km/h (0 Bft)
23.12.2013 03:10 1,3 C 79 % 1022,9 hPa 0,0 l/m 0,0 km/h (0 Bft) S 180 -1,9 C 0,0 C 0,0 km/h (0 Bft)
23.12.2013 03:15 0,7 C 79 % 1022,9 hPa 0,0 l/m 0,0 km/h (0 Bft) S 180 -2,5 C 0,0 C 0,0 km/h (0 Bft)
23.12.2013 03:20 0,4 C 79 % 1022,7 hPa 0,0 l/m 0,0 km/h (0 Bft) S 180 -2,8 C 0,0 C 0,0 km/h (0 Bft)
23.12.2013 03:25 0,2 C 79 % 1022,7 hPa 0,0 l/m 0,0 km/h (0 Bft) S 180 -3,0 C 0,0 C 0,0 km/h (0 Bft)
23.12.2013 03:30 1,4 C 81 % 1022,7 hPa 0,0 l/m 0,0 km/h (0 Bft) S 180 -1,5 C 0,0 C 0,0 km/h (0 Bft)
23.12.2013 03:35 0,8 C 81 % 1022,7 hPa 0,0 l/m 0,0 km/h (0 Bft) S 180 -2,1 C 0,0 C 0,0 km/h (0 Bft)
23.12.2013 03:40 0,4 C 81 % 1022,8 hPa 0,0 l/m 0,0 km/h (0 Bft) S 180 -2,5 C 0,0 C 0,0 km/h (0 Bft)
23.12.2013 03:45 0,1 C 82 % 1022,8 hPa 0,0 l/m 0,0 km/h (0 Bft) S 180 -2,6 C 0,0 C 0,0 km/h (0 Bft)
23.12.2013 03:50 0,3 C 83 % 1022,8 hPa 0,0 l/m 0,0 km/h (0 Bft) S 180 -2,2 C 0,0 C 0,0 km/h (0 Bft)
23.12.2013 03:55 0,3 C 84 % 1022,8 hPa 0,0 l/m 0,0 km/h (0 Bft) S 180 -2,1 C 0,0 C 0,0 km/h (0 Bft)
23.12.2013 04:00 0,3 C 84 % 1022,9 hPa 0,0 l/m 0,0 km/h (0 Bft) S 180 -2,1 C 0,0 C 0,0 km/h (0 Bft)
23.12.2013 04:05 0,6 C 85 % 1022,9 hPa 0,0 l/m 0,0 km/h (0 Bft) S 180 -1,6 C 0,0 C 0,0 km/h (0 Bft)
23.12.2013 04:10 0,0 C 84 % 1022,9 hPa 0,0 l/m 0,0 km/h (0 Bft) S 180 -2,4 C 0,0 C 0,0 km/h (0 Bft)
23.12.2013 04:15 0,3 C 85 % 1022,9 hPa 0,0 l/m 0,0 km/h (0 Bft) S 180 -1,9 C 0,0 C 0,0 km/h (0 Bft)
23.12.2013 04:20 0,6 C 85 % 1023,2 hPa 0,0 l/m 0,0 km/h (0 Bft) S 180 -1,6 C 0,0 C 0,0 km/h (0 Bft)
23.12.2013 04:25 0,6 C 85 % 1023,2 hPa 0,0 l/m 0,0 km/h (0 Bft) S 180 -1,6 C 0,0 C 0,0 km/h (0 Bft)
23.12.2013 04:30 2,2 C 86 % 1023,2 hPa 0,0 l/m 0,0 km/h (0 Bft) S 180 0,1 C 0,0 C 0,0 km/h (0 Bft)
23.12.2013 04:35 1,3 C 84 % 1023,2 hPa 0,0 l/m 0,0 km/h (0 Bft) S 180 -1,1 C 0,0 C 0,0 km/h (0 Bft)
23.12.2013 04:40 1,7 C 85 % 1023,1 hPa 0,0 l/m 0,0 km/h (0 Bft) S 180 -0,5 C 0,0 C 0,0 km/h (0 Bft)
23.12.2013 04:45 2,6 C 84 % 1023,1 hPa 0,0 l/m 0,0 km/h (0 Bft) S 180 0,2 C 0,0 C 0,0 km/h (0 Bft)
23.12.2013 04:50 2,5 C 83 % 1023,1 hPa 0,0 l/m 0,0 km/h (0 Bft) S 180 -0,1 C 0,0 C 0,0 km/h (0 Bft)
23.12.2013 04:55 3,4 C 80 % 1023,1 hPa 0,0 l/m 0,0 km/h (0 Bft) S 180 0,3 C 0,0 C 0,0 km/h (0 Bft)
23.12.2013 05:00 3,8 C 77 % 1023,4 hPa 0,0 l/m 0,0 km/h (0 Bft) S 180 0,1 C 0,0 C 0,0 km/h (0 Bft)
23.12.2013 05:05 4,2 C 74 % 1023,4 hPa 0,0 l/m 0,0 km/h (0 Bft) S 180 -0,0 C 0,0 C 0,0 km/h (0 Bft)
23.12.2013 05:10 4,4 C 72 % 1023,4 hPa 0,0 l/m 0,0 km/h (0 Bft) S 180 -0,2 C 0,0 C 0,0 km/h (0 Bft)
23.12.2013 05:15 4,6 C 71 % 1023,4 hPa 0,0 l/m 0,0 km/h (0 Bft) S 180 -0,2 C 0,0 C 0,0 km/h (0 Bft)
23.12.2013 05:20 4,3 C 71 % 1023,4 hPa 0,0 l/m 0,0 km/h (0 Bft) S 180 -0,5 C 0,0 C 0,0 km/h (0 Bft)
23.12.2013 05:25 4,2 C 71 % 1023,4 hPa 0,0 l/m 0,0 km/h (0 Bft) S 180 -0,6 C 0,0 C 0,0 km/h (0 Bft)
23.12.2013 05:29 4,3 C 72 % 1023,4 hPa 0,0 l/m 0,0 km/h (0 Bft) S 180 -0,3 C 0,0 C 0,0 km/h (0 Bft)
23.12.2013 05:30 4,3 C 72 % 1023,4 hPa 0,0 l/m 0,0 km/h (0 Bft) S 180 -0,3 C 0,0 C 0,0 km/h (0 Bft)
23.12.2013 05:35 4,8 C 71 % 1023,4 hPa 0,0 l/m 0,0 km/h (0 Bft) S 180 -0,0 C 0,0 C 0,0 km/h (0 Bft)
23.12.2013 05:40 4,7 C 70 % 1023,4 hPa 0,0 l/m 0,0 km/h (0 Bft) S 180 -0,3 C 0,0 C 0,0 km/h (0 Bft)
23.12.2013 05:45 4,7 C 71 % 1023,4 hPa 0,0 l/m 0,0 km/h (0 Bft) S 180 -0,1 C 0,0 C 0,0 km/h (0 Bft)
23.12.2013 05:50 4,8 C 72 % 1023,4 hPa 0,0 l/m 0,0 km/h (0 Bft) S 180 0,2 C 0,0 C 0,0 km/h (0 Bft)
23.12.2013 05:55 4,8 C 71 % 1023,4 hPa 0,0 l/m 0,0 km/h (0 Bft) S 180 -0,0 C 0,0 C 0,0 km/h (0 Bft)
23.12.2013 06:00 4,9 C 71 % 1023,3 hPa 0,0 l/m 0,0 km/h (0 Bft) S 180 0,1 C 0,0 C 0,0 km/h (0 Bft)
23.12.2013 06:05 4,9 C 72 % 1023,3 hPa 0,0 l/m 0,0 km/h (0 Bft) S 180 0,3 C 0,0 C 0,0 km/h (0 Bft)
23.12.2013 06:10 4,8 C 72 % 1023,3 hPa 0,0 l/m 0,0 km/h (0 Bft) S 180 0,2 C 0,0 C 0,0 km/h (0 Bft)
23.12.2013 06:15 4,6 C 73 % 1023,3 hPa 0,0 l/m 0,0 km/h (0 Bft) S 180 0,2 C 0,0 C 0,0 km/h (0 Bft)
23.12.2013 06:20 4,7 C 74 % 1023,4 hPa 0,0 l/m 0,0 km/h (0 Bft) S 180 0,5 C 0,0 C 0,0 km/h (0 Bft)
23.12.2013 06:25 5,0 C 73 % 1023,4 hPa 0,0 l/m 0,0 km/h (0 Bft) S 180 0,6 C 0,0 C 0,0 km/h (0 Bft)
23.12.2013 06:30 4,9 C 74 % 1023,4 hPa 0,0 l/m 0,0 km/h (0 Bft) S 180 0,7 C 0,0 C 0,0 km/h (0 Bft)
23.12.2013 06:35 5,0 C 74 % 1023,4 hPa 0,0 l/m 0,0 km/h (0 Bft) S 180 0,8 C 0,0 C 0,0 km/h (0 Bft)
23.12.2013 06:40 5,0 C 74 % 1023,3 hPa 0,0 l/m 0,0 km/h (0 Bft) S 180 0,8 C 0,0 C 0,0 km/h (0 Bft)
23.12.2013 06:45 5,0 C 74 % 1023,3 hPa 0,0 l/m 0,0 km/h (0 Bft) S 180 0,8 C 0,0 C 0,0 km/h (0 Bft)
23.12.2013 06:50 5,2 C 74 % 1023,3 hPa 0,0 l/m 0,0 km/h (0 Bft) S 180 1,0 C 0,0 C 0,0 km/h (0 Bft)
23.12.2013 06:55 5,2 C 74 % 1023,3 hPa 0,0 l/m 0,0 km/h (0 Bft) S 180 1,0 C 0,0 C 0,0 km/h (0 Bft)
23.12.2013 07:00 5,4 C 74 % 1023,3 hPa 0,0 l/m 0,0 km/h (0 Bft) S 180 1,1 C 0,0 C 0,0 km/h (0 Bft)
23.12.2013 07:05 5,7 C 73 % 1023,3 hPa 0,0 l/m 0,0 km/h (0 Bft) S 180 1,2 C 0,0 C 0,0 km/h (0 Bft)
23.12.2013 07:10 5,2 C 73 % 1023,3 hPa 0,0 l/m 0,0 km/h (0 Bft) S 180 0,8 C 0,0 C 0,0 km/h (0 Bft)
23.12.2013 07:15 5,2 C 73 % 1023,3 hPa 0,0 l/m 0,0 km/h (0 Bft) S 180 0,8 C 0,0 C 0,0 km/h (0 Bft)
23.12.2013 07:20 5,1 C 73 % 1023,3 hPa 0,0 l/m 0,0 km/h (0 Bft) S 180 0,7 C 0,0 C 0,0 km/h (0 Bft)
23.12.2013 07:25 4,9 C 74 % 1023,3 hPa 0,0 l/m 0,0 km/h (0 Bft) S 180 0,7 C 0,0 C 0,0 km/h (0 Bft)
23.12.2013 07:30 4,7 C 74 % 1023,3 hPa 0,0 l/m 0,0 km/h (0 Bft) S 180 0,5 C 0,0 C 0,0 km/h (0 Bft)
23.12.2013 07:35 4,2 C 74 % 1023,3 hPa 0,0 l/m 0,0 km/h (0 Bft) S 180 -0,0 C 0,0 C 0,0 km/h (0 Bft)
23.12.2013 07:40 4,1 C 74 % 1023,4 hPa 0,0 l/m 0,0 km/h (0 Bft) S 180 -0,1 C 0,0 C 0,0 km/h (0 Bft)
23.12.2013 07:45 3,9 C 75 % 1023,4 hPa 0,0 l/m 0,0 km/h (0 Bft) S 180 -0,1 C 0,0 C 0,0 km/h (0 Bft)
23.12.2013 07:50 4,0 C 76 % 1023,4 hPa 0,0 l/m 0,0 km/h (0 Bft) S 180 0,2 C 0,0 C 0,0 km/h (0 Bft)
23.12.2013 07:55 4,2 C 76 % 1023,4 hPa 0,0 l/m 0,0 km/h (0 Bft) S 180 0,4 C 0,0 C 0,0 km/h (0 Bft)
23.12.2013 08:00 3,8 C 76 % 1023,2 hPa 0,0 l/m 0,0 km/h (0 Bft) S 180 -0,0 C 0,0 C 0,0 km/h (0 Bft)
23.12.2013 08:05 4,3 C 76 % 1023,2 hPa 0,0 l/m 0,0 km/h (0 Bft) S 180 0,5 C 0,0 C 0,0 km/h (0 Bft)
23.12.2013 08:10 4,5 C 75 % 1023,2 hPa 0,0 l/m 0,0 km/h (0 Bft) S 180 0,5 C 0,0 C 0,0 km/h (0 Bft)
23.12.2013 08:15 4,3 C 75 % 1023,2 hPa 0,0 l/m 0,0 km/h (0 Bft) S 180 0,3 C 0,0 C 0,0 km/h (0 Bft)
23.12.2013 08:20 4,2 C 75 % 1023,2 hPa 0,0 l/m 0,0 km/h (0 Bft) S 180 0,2 C 0,0 C 0,0 km/h (0 Bft)
23.12.2013 08:25 3,0 C 75 % 1023,2 hPa 0,0 l/m 0,0 km/h (0 Bft) S 180 -1,0 C 0,0 C 0,0 km/h (0 Bft)
23.12.2013 08:30 3,4 C 77 % 1023,2 hPa 0,0 l/m 0,0 km/h (0 Bft) S 180 -0,2 C 0,0 C 0,0 km/h (0 Bft)
23.12.2013 08:35 4,0 C 77 % 1023,2 hPa 0,0 l/m 0,0 km/h (0 Bft) S 180 0,3 C 0,0 C 0,0 km/h (0 Bft)
23.12.2013 08:40 3,9 C 77 % 1023,3 hPa 0,0 l/m 0,0 km/h (0 Bft) S 180 0,2 C 0,0 C 0,0 km/h (0 Bft)
23.12.2013 08:45 3,2 C 77 % 1023,3 hPa 0,0 l/m 0,0 km/h (0 Bft) S 180 -0,4 C 0,0 C 0,0 km/h (0 Bft)
23.12.2013 08:50 3,7 C 78 % 1023,3 hPa 0,0 l/m 0,0 km/h (0 Bft) S 180 0,2 C 0,0 C 0,0 km/h (0 Bft)
23.12.2013 08:55 3,8 C 77 % 1023,3 hPa 0,0 l/m 0,0 km/h (0 Bft) S 180 0,1 C 0,0 C 0,0 km/h (0 Bft)
23.12.2013 09:00 3,8 C 77 % 1023,3 hPa 0,0 l/m 0,0 km/h (0 Bft) S 180 0,1 C 0,0 C 0,0 km/h (0 Bft)
23.12.2013 09:05 3,8 C 77 % 1023,3 hPa 0,0 l/m 0,0 km/h (0 Bft) S 180 0,1 C 0,0 C 0,0 km/h (0 Bft)
23.12.2013 09:10 3,7 C 77 % 1023,3 hPa 0,0 l/m 0,0 km/h (0 Bft) S 180 0,1 C 0,0 C 0,0 km/h (0 Bft)
23.12.2013 09:15 3,1 C 76 % 1023,3 hPa 0,0 l/m 0,0 km/h (0 Bft) S 180 -0,7 C 0,0 C 0,0 km/h (0 Bft)
23.12.2013 09:20 3,2 C 77 % 1023,5 hPa 0,0 l/m 0,0 km/h (0 Bft) S 180 -0,4 C 0,0 C 0,0 km/h (0 Bft)
23.12.2013 09:25 3,5 C 78 % 1023,5 hPa 0,0 l/m 0,0 km/h (0 Bft) S 180 0,0 C 0,0 C 0,0 km/h (0 Bft)
23.12.2013 09:30 4,1 C 77 % 1023,5 hPa 0,0 l/m 0,0 km/h (0 Bft) S 180 0,4 C 0,0 C 0,0 km/h (0 Bft)
23.12.2013 09:35 3,9 C 77 % 1023,5 hPa 0,0 l/m 0,0 km/h (0 Bft) S 180 0,2 C 0,0 C 0,0 km/h (0 Bft)
23.12.2013 09:40 3,6 C 76 % 1023,6 hPa 0,0 l/m 0,0 km/h (0 Bft) S 180 -0,2 C 0,0 C 0,0 km/h (0 Bft)
23.12.2013 09:45 4,2 C 77 % 1023,6 hPa 0,0 l/m 0,0 km/h (0 Bft) S 180 0,5 C 0,0 C 0,0 km/h (0 Bft)
23.12.2013 09:50 4,7 C 76 % 1023,6 hPa 0,0 l/m 0,0 km/h (0 Bft) S 180 0,8 C 0,0 C 0,0 km/h (0 Bft)
23.12.2013 09:55 5,1 C 75 % 1023,6 hPa 0,0 l/m 0,0 km/h (0 Bft) S 180 1,0 C 0,0 C 0,0 km/h (0 Bft)
23.12.2013 10:00 5,4 C 74 % 1023,7 hPa 0,0 l/m 0,0 km/h (0 Bft) S 180 1,1 C 0,0 C 0,0 km/h (0 Bft)
23.12.2013 10:05 5,1 C 74 % 1023,7 hPa 0,0 l/m 0,0 km/h (0 Bft) S 180 0,9 C 0,0 C 0,0 km/h (0 Bft)
23.12.2013 10:10 5,7 C 73 % 1023,7 hPa 0,0 l/m 0,0 km/h (0 Bft) S 180 1,2 C 0,0 C 0,0 km/h (0 Bft)
23.12.2013 10:15 5,5 C 72 % 1023,7 hPa 0,0 l/m 0,0 km/h (0 Bft) S 180 0,9 C 0,0 C 0,0 km/h (0 Bft)
23.12.2013 10:20 5,3 C 73 % 1023,7 hPa 0,0 l/m 0,0 km/h (0 Bft) S 180 0,9 C 0,0 C 0,0 km/h (0 Bft)
23.12.2013 10:25 5,6 C 73 % 1023,7 hPa 0,0 l/m 0,0 km/h (0 Bft) S 180 1,2 C 0,0 C 0,0 km/h (0 Bft)
23.12.2013 10:28 5,8 C 73 % 1023,7 hPa 0,0 l/m 0,0 km/h (0 Bft) S 180 1,3 C 0,0 C 0,0 km/h (0 Bft)
23.12.2013 10:30 5,8 C 73 % 1023,7 hPa 0,0 l/m 0,0 km/h (0 Bft) S 180 1,3 C 0,0 C 0,0 km/h (0 Bft)
23.12.2013 10:35 5,7 C 73 % 1023,7 hPa 0,0 l/m 0,0 km/h (0 Bft) S 180 1,2 C 0,0 C 0,0 km/h (0 Bft)
23.12.2013 10:40 5,7 C 73 % 1023,7 hPa 0,0 l/m 0,0 km/h (0 Bft) S 180 1,2 C 0,0 C 0,0 km/h (0 Bft)
23.12.2013 10:45 6,0 C 71 % 1023,7 hPa 0,0 l/m 0,0 km/h (0 Bft) S 180 1,1 C 0,0 C 0,0 km/h (0 Bft)
23.12.2013 10:50 5,9 C 72 % 1023,7 hPa 0,0 l/m 0,0 km/h (0 Bft) S 180 1,2 C 0,0 C 0,0 km/h (0 Bft)
23.12.2013 10:55 5,9 C 71 % 1023,7 hPa 0,0 l/m 0,0 km/h (0 Bft) S 180 1,1 C 0,0 C 0,0 km/h (0 Bft)
23.12.2013 11:00 5,8 C 71 % 1023,4 hPa 0,0 l/m 0,0 km/h (0 Bft) S 180 1,0 C 0,0 C 0,0 km/h (0 Bft)
23.12.2013 11:05 5,6 C 71 % 1023,4 hPa 0,0 l/m 0,0 km/h (0 Bft) S 180 0,8 C 0,0 C 0,0 km/h (0 Bft)
23.12.2013 11:10 6,0 C 69 % 1023,4 hPa 0,0 l/m 0,0 km/h (0 Bft) S 180 0,8 C 0,0 C 0,0 km/h (0 Bft)
23.12.2013 11:15 6,1 C 68 % 1023,4 hPa 0,0 l/m 0,0 km/h (0 Bft) S 180 0,6 C 0,0 C 0,0 km/h (0 Bft)
23.12.2013 11:20 5,8 C 69 % 1023,1 hPa 0,0 l/m 0,0 km/h (0 Bft) S 180 0,6 C 0,0 C 0,0 km/h (0 Bft)
23.12.2013 11:25 5,8 C 70 % 1023,1 hPa 0,0 l/m 0,0 km/h (0 Bft) S 180 0,8 C 0,0 C 0,0 km/h (0 Bft)
23.12.2013 11:30 5,7 C 70 % 1023,1 hPa 0,0 l/m 0,0 km/h (0 Bft) S 180 0,7 C 0,0 C 0,0 km/h (0 Bft)
23.12.2013 11:35 6,1 C 69 % 1023,1 hPa 0,0 l/m 0,0 km/h (0 Bft) S 180 0,8 C 0,0 C 0,0 km/h (0 Bft)
23.12.2013 11:40 6,0 C 69 % 1022,6 hPa 0,0 l/m 0,0 km/h (0 Bft) S 180 0,8 C 0,0 C 0,0 km/h (0 Bft)
23.12.2013 11:45 6,1 C 69 % 1022,6 hPa 0,0 l/m 0,0 km/h (0 Bft) S 180 0,8 C 0,0 C 0,0 km/h (0 Bft)
23.12.2013 11:50 5,9 C 69 % 1022,6 hPa 0,0 l/m 0,0 km/h (0 Bft) S 180 0,7 C 0,0 C 0,0 km/h (0 Bft)
23.12.2013 11:55 6,0 C 68 % 1022,6 hPa 0,0 l/m 0,0 km/h (0 Bft) S 180 0,6 C 0,0 C 0,0 km/h (0 Bft)
23.12.2013 12:00 6,3 C 68 % 1022,5 hPa 0,0 l/m 0,0 km/h (0 Bft) S 180 0,8 C 0,0 C 0,0 km/h (0 Bft)
23.12.2013 12:05 6,7 C 67 % 1022,5 hPa 0,0 l/m 0,0 km/h (0 Bft) S 180 1,0 C 0,0 C 0,0 km/h (0 Bft)
23.12.2013 12:10 6,1 C 67 % 1022,5 hPa 0,0 l/m 0,0 km/h (0 Bft) S 180 0,4 C 0,0 C 0,0 km/h (0 Bft)
23.12.2013 12:15 6,3 C 67 % 1022,5 hPa 0,0 l/m 0,0 km/h (0 Bft) S 180 0,6 C 0,0 C 0,0 km/h (0 Bft)
23.12.2013 12:20 6,3 C 67 % 1022,1 hPa 0,0 l/m 0,0 km/h (0 Bft) S 180 0,6 C 0,0 C 0,0 km/h (0 Bft)
23.12.2013 12:25 6,3 C 67 % 1022,1 hPa 0,0 l/m 0,0 km/h (0 Bft) S 180 0,6 C 0,0 C 0,0 km/h (0 Bft)
23.12.2013 12:30 6,4 C 67 % 1022,1 hPa 0,0 l/m 0,0 km/h (0 Bft) S 180 0,7 C 0,0 C 0,0 km/h (0 Bft)
23.12.2013 12:35 6,6 C 66 % 1022,1 hPa 0,0 l/m 0,0 km/h (0 Bft) S 180 0,7 C 0,0 C 0,0 km/h (0 Bft)
23.12.2013 12:40 6,5 C 66 % 1021,9 hPa 0,0 l/m 0,0 km/h (0 Bft) S 180 0,6 C 0,0 C 0,0 km/h (0 Bft)
23.12.2013 12:45 6,7 C 65 % 1021,9 hPa 0,0 l/m 0,0 km/h (0 Bft) S 180 0,6 C 0,0 C 0,0 km/h (0 Bft)
23.12.2013 12:50 6,6 C 64 % 1021,9 hPa 0,0 l/m 0,0 km/h (0 Bft) S 180 0,3 C 0,0 C 0,0 km/h (0 Bft)
23.12.2013 12:55 6,7 C 65 % 1021,9 hPa 0,0 l/m 0,0 km/h (0 Bft) S 180 0,6 C 0,0 C 0,0 km/h (0 Bft)
23.12.2013 13:00 6,8 C 65 % 1021,6 hPa 0,0 l/m 0,0 km/h (0 Bft) S 180 0,7 C 0,0 C 0,0 km/h (0 Bft)
23.12.2013 13:05 6,7 C 65 % 1021,6 hPa 0,0 l/m 0,0 km/h (0 Bft) S 180 0,6 C 0,0 C 0,0 km/h (0 Bft)
23.12.2013 13:10 7,1 C 64 % 1021,6 hPa 0,0 l/m 0,0 km/h (0 Bft) S 180 0,8 C 0,0 C 0,0 km/h (0 Bft)
23.12.2013 13:15 7,0 C 63 % 1021,6 hPa 0,0 l/m 0,0 km/h (0 Bft) S 180 0,4 C 0,0 C 0,0 km/h (0 Bft)
23.12.2013 13:20 7,1 C 63 % 1021,3 hPa 0,0 l/m 0,0 km/h (0 Bft) S 180 0,5 C 0,0 C 0,0 km/h (0 Bft)
23.12.2013 13:25 7,2 C 64 % 1021,3 hPa 0,0 l/m 0,0 km/h (0 Bft) S 180 0,9 C 0,0 C 0,0 km/h (0 Bft)
23.12.2013 13:30 7,3 C 64 % 1021,3 hPa 0,0 l/m 0,0 km/h (0 Bft) S 180 1,0 C 0,0 C 0,0 km/h (0 Bft)
23.12.2013 13:35 7,4 C 63 % 1021,3 hPa 0,0 l/m 0,0 km/h (0 Bft) S 180 0,8 C 0,0 C 0,0 km/h (0 Bft)
23.12.2013 13:40 7,3 C 63 % 1021,2 hPa 0,0 l/m 0,0 km/h (0 Bft) S 180 0,7 C 0,0 C 0,0 km/h (0 Bft)
23.12.2013 13:45 7,1 C 64 % 1021,2 hPa 0,0 l/m 0,0 km/h (0 Bft) S 180 0,8 C 0,0 C 0,0 km/h (0 Bft)
23.12.2013 13:50 7,1 C 64 % 1021,2 hPa 0,0 l/m 0,0 km/h (0 Bft) S 180 0,8 C 0,0 C 0,0 km/h (0 Bft)
23.12.2013 13:55 7,2 C 64 % 1021,2 hPa 0,0 l/m 0,0 km/h (0 Bft) S 180 0,9 C 0,0 C 0,0 km/h (0 Bft)
23.12.2013 14:00 7,0 C 64 % 1021,1 hPa 0,0 l/m 0,0 km/h (0 Bft) S 180 0,7 C 0,0 C 0,0 km/h (0 Bft)
23.12.2013 14:05 7,9 C 62 % 1021,1 hPa 0,0 l/m 0,0 km/h (0 Bft) S 180 1,1 C 0,0 C 0,0 km/h (0 Bft)
23.12.2013 14:10 7,9 C 60 % 1021,1 hPa 0,0 l/m 0,0 km/h (0 Bft) S 180 0,6 C 0,0 C 0,0 km/h (0 Bft)
23.12.2013 14:15 7,7 C 60 % 1021,1 hPa 0,0 l/m 0,0 km/h (0 Bft) S 180 0,4 C 0,0 C 0,0 km/h (0 Bft)
23.12.2013 14:20 7,5 C 61 % 1021,2 hPa 0,0 l/m 0,0 km/h (0 Bft) S 180 0,5 C 0,0 C 0,0 km/h (0 Bft)
23.12.2013 14:25 7,4 C 61 % 1021,2 hPa 0,0 l/m 0,0 km/h (0 Bft) S 180 0,4 C 0,0 C 0,0 km/h (0 Bft)
23.12.2013 14:30 6,6 C 62 % 1021,2 hPa 0,0 l/m 0,0 km/h (0 Bft) S 180 -0,1 C 0,0 C 0,0 km/h (0 Bft)
23.12.2013 14:35 6,5 C 63 % 1021,2 hPa 0,0 l/m 0,0 km/h (0 Bft) S 180 -0,0 C 0,0 C 0,0 km/h (0 Bft)
23.12.2013 14:40 7,0 C 63 % 1021,0 hPa 0,0 l/m 0,0 km/h (0 Bft) S 180 0,4 C 0,0 C 0,0 km/h (0 Bft)
23.12.2013 14:45 7,1 C 63 % 1021,0 hPa 0,0 l/m 0,0 km/h (0 Bft) S 180 0,5 C 0,0 C 0,0 km/h (0 Bft)
23.12.2013 14:50 6,7 C 63 % 1021,0 hPa 0,0 l/m 0,0 km/h (0 Bft) S 180 0,2 C 0,0 C 0,0 km/h (0 Bft)
23.12.2013 14:55 6,9 C 63 % 1021,0 hPa 0,0 l/m 0,0 km/h (0 Bft) S 180 0,4 C 0,0 C 0,0 km/h (0 Bft)
23.12.2013 15:00 7,0 C 63 % 1020,7 hPa 0,0 l/m 0,0 km/h (0 Bft) S 180 0,4 C 0,0 C 0,0 km/h (0 Bft)
23.12.2013 15:05 7,2 C 63 % 1020,7 hPa 0,0 l/m 0,0 km/h (0 Bft) S 180 0,6 C 0,0 C 0,0 km/h (0 Bft)
23.12.2013 15:10 7,1 C 63 % 1020,7 hPa 0,0 l/m 0,0 km/h (0 Bft) S 180 0,5 C 0,0 C 0,0 km/h (0 Bft)
23.12.2013 15:15 7,1 C 63 % 1020,7 hPa 0,0 l/m 0,0 km/h (0 Bft) S 180 0,5 C 0,0 C 0,0 km/h (0 Bft)
23.12.2013 15:20 7,0 C 63 % 1020,6 hPa 0,0 l/m 0,0 km/h (0 Bft) S 180 0,4 C 0,0 C 0,0 km/h (0 Bft)
23.12.2013 15:24 6,9 C 63 % 1020,6 hPa 0,0 l/m 0,0 km/h (0 Bft) S 180 0,4 C 0,0 C 0,0 km/h (0 Bft)
23.12.2013 15:25 6,9 C 63 % 1020,6 hPa 0,0 l/m 0,0 km/h (0 Bft) S 180 0,4 C 0,0 C 0,0 km/h (0 Bft)
23.12.2013 15:30 6,9 C 64 % 1020,6 hPa 0,0 l/m 0,0 km/h (0 Bft) S 180 0,6 C 0,0 C 0,0 km/h (0 Bft)
23.12.2013 15:35 6,8 C 64 % 1020,6 hPa 0,0 l/m 0,0 km/h (0 Bft) S 180 0,5 C 0,0 C 0,0 km/h (0 Bft)
23.12.2013 15:40 6,8 C 64 % 1020,4 hPa 0,0 l/m 0,0 km/h (0 Bft) S 180 0,5 C 0,0 C 0,0 km/h (0 Bft)
23.12.2013 15:45 6,7 C 64 % 1020,4 hPa 0,0 l/m 0,0 km/h (0 Bft) S 180 0,4 C 0,0 C 0,0 km/h (0 Bft)
23.12.2013 15:50 5,6 C 65 % 1020,4 hPa 0,0 l/m 0,0 km/h (0 Bft) S 180 -0,4 C 0,0 C 0,0 km/h (0 Bft)
23.12.2013 15:55 5,6 C 66 % 1020,4 hPa 0,0 l/m 0,0 km/h (0 Bft) S 180 -0,2 C 0,0 C 0,0 km/h (0 Bft)
23.12.2013 16:00 4,8 C 67 % 1020,1 hPa 0,0 l/m 0,0 km/h (0 Bft) S 180 -0,8 C 0,0 C 0,0 km/h (0 Bft)
23.12.2013 16:05 4,4 C 69 % 1020,1 hPa 0,0 l/m 0,0 km/h (0 Bft) S 180 -0,8 C 0,0 C 0,0 km/h (0 Bft)
23.12.2013 16:10 4,8 C 70 % 1020,1 hPa 0,0 l/m 1,9 km/h (1 Bft) O 90 -0,2 C 4,1 C 3,7 km/h (1 Bft)
23.12.2013 16:15 5,1 C 69 % 1020,1 hPa 0,0 l/m 2,7 km/h (1 Bft) O 90 -0,1 C 4,0 C 3,2 km/h (1 Bft)
23.12.2013 16:20 5,0 C 69 % 1019,8 hPa 0,0 l/m 4,3 km/h (1 Bft) O-SO 112 -0,2 C 2,9 C 7,2 km/h (2 Bft)
23.12.2013 16:25 4,6 C 70 % 1019,8 hPa 0,0 l/m 5,3 km/h (1 Bft) O-NO 67 -0,4 C 2,4 C 6,9 km/h (2 Bft)
23.12.2013 16:30 4,5 C 70 % 1019,8 hPa 0,0 l/m 6,3 km/h (2 Bft) O-SO 112 -0,5 C 1,6 C 6,1 km/h (2 Bft)
23.12.2013 16:35 4,2 C 70 % 1019,8 hPa 0,0 l/m 6,3 km/h (2 Bft) O-SO 112 -0,8 C 1,6 C 7,2 km/h (2 Bft)
23.12.2013 16:40 4,0 C 71 % 1019,7 hPa 0,0 l/m 5,3 km/h (1 Bft) O-NO 67 -0,8 C 1,8 C 7,4 km/h (2 Bft)
23.12.2013 16:45 3,7 C 71 % 1019,7 hPa 0,0 l/m 4,0 km/h (1 Bft) O-NO 67 -1,1 C 2,0 C 3,1 km/h (1 Bft)
23.12.2013 16:50 2,8 C 72 % 1019,7 hPa 0,0 l/m 1,4 km/h (1 Bft) NO 45 -1,7 C 2,5 C 0,0 km/h (0 Bft)
23.12.2013 16:55 1,9 C 73 % 1019,7 hPa 0,0 l/m 0,6 km/h (0 Bft) NO 45 -2,4 C 2,0 C 0,0 km/h (0 Bft)
23.12.2013 17:00 1,4 C 73 % 1019,2 hPa 0,0 l/m 0,0 km/h (0 Bft) NO 45 -2,9 C 1,5 C 0,0 km/h (0 Bft)
23.12.2013 17:05 1,0 C 74 % 1019,2 hPa 0,0 l/m 0,0 km/h (0 Bft) NO 45 -3,1 C 1,2 C 0,0 km/h (0 Bft)
23.12.2013 17:10 0,9 C 76 % 1019,2 hPa 0,0 l/m 0,0 km/h (0 Bft) NO 45 -2,8 C 0,9 C 0,0 km/h (0 Bft)
23.12.2013 17:15 0,6 C 76 % 1019,2 hPa 0,0 l/m 0,0 km/h (0 Bft) NO 45 -3,1 C 0,7 C 0,0 km/h (0 Bft)
23.12.2013 17:20 0,4 C 76 % 1019,1 hPa 0,0 l/m 0,0 km/h (0 Bft) NO 45 -3,3 C 0,3 C 0,0 km/h (0 Bft)
23.12.2013 17:25 0,5 C 78 % 1019,1 hPa 0,0 l/m 0,0 km/h (0 Bft) O-NO 67 -2,9 C 0,0 C 0,0 km/h (0 Bft)
23.12.2013 17:30 0,6 C 80 % 1019,1 hPa 0,0 l/m 0,0 km/h (0 Bft) NO 45 -2,4 C -0,2 C 0,0 km/h (0 Bft)
23.12.2013 17:34 0,2 C 79 % 1019,1 hPa 0,0 l/m 0,0 km/h (0 Bft) NO 45 -3,0 C -0,1 C 0,0 km/h (0 Bft)
23.12.2013 17:35 0,2 C 79 % 1019,1 hPa 0,0 l/m 0,0 km/h (0 Bft) NO 45 -3,0 C -0,1 C 0,0 km/h (0 Bft)
23.12.2013 17:40 -0,2 C 79 % 1018,8 hPa 0,0 l/m 0,0 km/h (0 Bft) O-SO 112 -3,4 C -0,3 C 0,0 km/h (0 Bft)
23.12.2013 17:45 -0,2 C 80 % 1018,8 hPa 0,0 l/m 0,0 km/h (0 Bft) O 90 -3,2 C -0,5 C 0,0 km/h (0 Bft)
23.12.2013 17:50 0,4 C 81 % 1018,8 hPa 0,0 l/m 0,6 km/h (0 Bft) O-NO 67 -2,5 C -0,6 C 3,1 km/h (1 Bft)
23.12.2013 17:55 0,7 C 82 % 1018,8 hPa 0,0 l/m 1,3 km/h (1 Bft) NO 45 -2,0 C -0,3 C 2,4 km/h (1 Bft)
23.12.2013 18:00 0,4 C 82 % 1018,2 hPa 0,0 l/m 1,1 km/h (1 Bft) O 90 -2,3 C -0,2 C 0,0 km/h (0 Bft)
23.12.2013 18:05 -0,4 C 81 % 1018,2 hPa 0,0 l/m 0,3 km/h (0 Bft) O 90 -3,3 C -0,4 C 0,0 km/h (0 Bft)
23.12.2013 18:10 -0,6 C 81 % 1018,2 hPa 0,0 l/m 0,0 km/h (0 Bft) O-SO 112 -3,4 C -0,9 C 0,0 km/h (0 Bft)
23.12.2013 18:15 -0,5 C 82 % 1018,2 hPa 0,0 l/m 0,0 km/h (0 Bft) O 90 -3,2 C -0,9 C 0,0 km/h (0 Bft)
23.12.2013 18:20 -0,7 C 82 % 1018,0 hPa 0,0 l/m 0,0 km/h (0 Bft) NO 45 -3,4 C -1,2 C 0,0 km/h (0 Bft)
23.12.2013 18:25 -1,4 C 82 % 1018,0 hPa 0,0 l/m 0,0 km/h (0 Bft) NO 45 -4,1 C -1,4 C 0,0 km/h (0 Bft)
23.12.2013 18:30 -1,3 C 83 % 1018,0 hPa 0,0 l/m 0,0 km/h (0 Bft) O 90 -3,8 C -1,7 C 0,0 km/h (0 Bft)
23.12.2013 18:35 -1,3 C 83 % 1018,0 hPa 0,0 l/m 0,0 km/h (0 Bft) O-NO 67 -3,8 C -1,9 C 0,0 km/h (0 Bft)
23.12.2013 18:40 -1,2 C 84 % 1017,9 hPa 0,0 l/m 0,2 km/h (0 Bft) NO 45 -3,5 C -1,8 C 0,0 km/h (0 Bft)
23.12.2013 18:45 -1,5 C 84 % 1017,9 hPa 0,0 l/m 0,2 km/h (0 Bft) O-SO 112 -3,8 C -1,7 C 0,0 km/h (0 Bft)
23.12.2013 18:50 -2,0 C 84 % 1017,9 hPa 0,0 l/m 0,0 km/h (0 Bft) O-SO 112 -4,3 C -2,0 C 0,0 km/h (0 Bft)
23.12.2013 18:55 -1,8 C 84 % 1017,9 hPa 0,0 l/m 0,2 km/h (0 Bft) O-NO 67 -4,1 C -2,0 C 0,0 km/h (0 Bft)
23.12.2013 19:00 -1,9 C 84 % 1017,2 hPa 0,0 l/m 0,2 km/h (0 Bft) NO 45 -4,2 C -2,2 C 0,0 km/h (0 Bft)
23.12.2013 19:05 -2,1 C 84 % 1017,2 hPa 0,0 l/m 0,0 km/h (0 Bft) NO 45 -4,4 C -2,1 C 1,6 km/h (1 Bft)
23.12.2013 19:10 -1,7 C 86 % 1017,2 hPa 0,0 l/m 0,5 km/h (0 Bft) O-NO 67 -3,7 C -2,1 C 0,0 km/h (0 Bft)
23.12.2013 19:15 -1,9 C 86 % 1017,2 hPa 0,0 l/m 0,5 km/h (0 Bft) NO 45 -3,9 C -2,2 C 0,0 km/h (0 Bft)
23.12.2013 19:20 -2,1 C 86 % 1016,9 hPa 0,0 l/m 0,2 km/h (0 Bft) O-SO 112 -4,1 C -2,2 C 2,1 km/h (1 Bft)
23.12.2013 19:25 -2,4 C 86 % 1016,9 hPa 0,0 l/m 0,2 km/h (0 Bft) O-SO 112 -4,4 C -2,2 C 0,0 km/h (0 Bft)
23.12.2013 19:30 -1,4 C 87 % 1016,9 hPa 0,0 l/m 1,6 km/h (1 Bft) NO 45 -3,3 C -2,2 C 5,3 km/h (1 Bft)
23.12.2013 19:35 -1,0 C 88 % 1016,9 hPa 0,0 l/m 2,9 km/h (1 Bft) O-SO 112 -2,7 C -2,4 C 4,2 km/h (1 Bft)
23.12.2013 19:40 -0,9 C 88 % 1016,9 hPa 0,0 l/m 2,7 km/h (1 Bft) W-SW 247 -2,6 C -1,9 C 0,0 km/h (0 Bft)
23.12.2013 19:45 -1,5 C 88 % 1016,9 hPa 0,0 l/m 1,6 km/h (1 Bft) S-SO 157 -3,2 C -1,7 C 0,0 km/h (0 Bft)
23.12.2013 19:50 -0,5 C 89 % 1016,9 hPa 0,0 l/m 2,1 km/h (1 Bft) O 90 -2,1 C -1,7 C 7,6 km/h (2 Bft)
23.12.2013 19:55 0,0 C 89 % 1016,9 hPa 0,0 l/m 3,7 km/h (1 Bft) SO 135 -1,6 C -2,3 C 2,9 km/h (1 Bft)
23.12.2013 20:00 -1,0 C 88 % 1017,0 hPa 0,0 l/m 2,6 km/h (1 Bft) O-SO 112 -2,7 C -1,7 C 6,8 km/h (2 Bft)
23.12.2013 20:05 1,0 C 88 % 1017,0 hPa 0,0 l/m 3,1 km/h (1 Bft) O-NO 67 -0,8 C -1,5 C 6,4 km/h (2 Bft)
23.12.2013 20:10 -0,6 C 86 % 1017,0 hPa 0,0 l/m 3,5 km/h (1 Bft) N 360 -2,6 C -1,8 C 10,6 km/h (2 Bft)
23.12.2013 20:15 0,1 C 86 % 1017,0 hPa 0,0 l/m 2,6 km/h (1 Bft) O-SO 112 -2,0 C -1,5 C 7,6 km/h (2 Bft)
23.12.2013 20:20 0,4 C 87 % 1016,8 hPa 0,0 l/m 3,5 km/h (1 Bft) NO 45 -1,5 C -1,4 C 7,1 km/h (2 Bft)
23.12.2013 20:25 1,1 C 86 % 1016,8 hPa 0,0 l/m 4,5 km/h (1 Bft) O-SO 112 -1,0 C -1,5 C 6,6 km/h (2 Bft)
23.12.2013 20:30 -0,4 C 84 % 1016,8 hPa 0,0 l/m 3,1 km/h (1 Bft) SO 135 -2,8 C -0,4 C 0,0 km/h (0 Bft)
23.12.2013 20:35 -1,2 C 83 % 1016,8 hPa 0,0 l/m 1,3 km/h (1 Bft) NO 45 -3,7 C -0,5 C 0,0 km/h (0 Bft)
23.12.2013 20:40 -1,1 C 84 % 1016,6 hPa 0,0 l/m 0,3 km/h (0 Bft) W-NW 292 -3,4 C -0,9 C 0,0 km/h (0 Bft)
23.12.2013 20:45 -1,9 C 83 % 1016,6 hPa 0,0 l/m 0,3 km/h (0 Bft) W-NW 292 -4,4 C -1,4 C 0,0 km/h (0 Bft)
23.12.2013 20:50 -1,9 C 84 % 1016,6 hPa 0,0 l/m 0,0 km/h (0 Bft) W-NW 292 -4,2 C -2,0 C 0,0 km/h (0 Bft)
23.12.2013 20:55 -2,1 C 84 % 1016,6 hPa 0,0 l/m 0,0 km/h (0 Bft) NW 315 -4,4 C -2,2 C 0,0 km/h (0 Bft)
23.12.2013 21:00 -2,3 C 84 % 1016,4 hPa 0,0 l/m 0,0 km/h (0 Bft) N 360 -4,6 C -2,4 C 0,0 km/h (0 Bft)
23.12.2013 21:05 -2,5 C 85 % 1016,4 hPa 0,0 l/m 0,0 km/h (0 Bft) N 360 -4,7 C -2,7 C 0,0 km/h (0 Bft)
23.12.2013 21:10 -2,9 C 85 % 1016,4 hPa 0,0 l/m 0,0 km/h (0 Bft) N 360 -5,1 C -2,9 C 0,0 km/h (0 Bft)
23.12.2013 21:15 -2,8 C 85 % 1016,4 hPa 0,0 l/m 0,0 km/h (0 Bft) N 360 -5,0 C -2,9 C 0,0 km/h (0 Bft)
23.12.2013 21:20 -2,8 C 85 % 1016,1 hPa 0,0 l/m 0,0 km/h (0 Bft) N 360 -5,0 C -2,9 C 0,0 km/h (0 Bft)
23.12.2013 21:25 -3,1 C 85 % 1016,1 hPa 0,0 l/m 0,0 km/h (0 Bft) N 360 -5,3 C -3,0 C 0,0 km/h (0 Bft)
23.12.2013 21:30 -3,0 C 86 % 1016,1 hPa 0,0 l/m 0,0 km/h (0 Bft) N 360 -5,0 C -3,1 C 0,0 km/h (0 Bft)
23.12.2013 21:35 -2,7 C 86 % 1016,1 hPa 0,0 l/m 0,0 km/h (0 Bft) N 360 -4,7 C -3,1 C 0,0 km/h (0 Bft)
23.12.2013 21:40 -2,8 C 86 % 1015,9 hPa 0,0 l/m 0,0 km/h (0 Bft) W-NW 292 -4,8 C -3,0 C 0,0 km/h (0 Bft)
23.12.2013 21:45 -2,9 C 86 % 1015,9 hPa 0,0 l/m 0,0 km/h (0 Bft) W-NW 292 -4,9 C -3,1 C 0,0 km/h (0 Bft)
23.12.2013 21:50 -2,8 C 86 % 1015,9 hPa 0,0 l/m 0,2 km/h (0 Bft) N-NO 22 -4,8 C -3,0 C 0,0 km/h (0 Bft)
23.12.2013 21:55 -2,9 C 87 % 1015,9 hPa 0,0 l/m 0,2 km/h (0 Bft) N 360 -4,8 C -3,2 C 0,0 km/h (0 Bft)
23.12.2013 22:00 -2,7 C 87 % 1016,0 hPa 0,0 l/m 1,0 km/h (0 Bft) N-NO 22 -4,6 C -3,1 C 0,0 km/h (0 Bft)
23.12.2013 22:05 -2,5 C 87 % 1016,0 hPa 0,0 l/m 1,0 km/h (0 Bft) N-NW 337 -4,4 C -2,9 C 0,0 km/h (0 Bft)
23.12.2013 22:10 -1,6 C 88 % 1016,0 hPa 0,0 l/m 1,0 km/h (0 Bft) O-NO 67 -3,3 C -2,8 C 4,7 km/h (1 Bft)
23.12.2013 22:15 -1,6 C 89 % 1016,0 hPa 0,0 l/m 1,1 km/h (1 Bft) SW 225 -3,2 C -2,3 C 3,5 km/h (1 Bft)
23.12.2013 22:20 -2,8 C 88 % 1015,7 hPa 0,0 l/m 0,8 km/h (0 Bft) S-SW 202 -4,5 C -2,6 C 0,0 km/h (0 Bft)
23.12.2013 22:25 -3,1 C 88 % 1015,7 hPa 0,0 l/m 0,3 km/h (0 Bft) W-SW 247 -4,8 C -2,9 C 0,0 km/h (0 Bft)
23.12.2013 22:30 -3,1 C 88 % 1015,7 hPa 0,0 l/m 0,0 km/h (0 Bft) S 180 -4,8 C -3,1 C 1,9 km/h (1 Bft)
23.12.2013 22:35 -2,9 C 88 % 1015,7 hPa 0,0 l/m 0,3 km/h (0 Bft) S 180 -4,6 C -3,2 C 2,9 km/h (1 Bft)
23.12.2013 22:40 -3,0 C 88 % 1015,4 hPa 0,0 l/m 1,1 km/h (1 Bft) S 180 -4,7 C -3,1 C 0,0 km/h (0 Bft)
23.12.2013 22:45 -3,2 C 88 % 1015,4 hPa 0,0 l/m 0,8 km/h (0 Bft) S 180 -4,9 C -3,3 C 0,0 km/h (0 Bft)
23.12.2013 22:50 -2,8 C 88 % 1015,4 hPa 0,0 l/m 0,6 km/h (0 Bft) O-NO 67 -4,5 C -3,3 C 1,6 km/h (1 Bft)
23.12.2013 22:55 -2,3 C 89 % 1015,4 hPa 0,0 l/m 1,3 km/h (1 Bft) S-SW 202 -3,9 C -2,9 C 2,6 km/h (1 Bft)
23.12.2013 23:00 -2,8 C 89 % 1015,1 hPa 0,0 l/m 1,3 km/h (1 Bft) S 180 -4,4 C -2,7 C 0,0 km/h (0 Bft)
23.12.2013 23:05 -3,3 C 89 % 1015,1 hPa 0,0 l/m 0,8 km/h (0 Bft) S 180 -4,8 C -3,0 C 0,0 km/h (0 Bft)
23.12.2013 23:10 -3,3 C 89 % 1015,1 hPa 0,0 l/m 0,0 km/h (0 Bft) S-SW 202 -4,8 C -3,5 C 0,0 km/h (0 Bft)
23.12.2013 23:15 -3,4 C 89 % 1015,1 hPa 0,0 l/m 0,2 km/h (0 Bft) NO 45 -4,9 C -3,6 C 2,9 km/h (1 Bft)
23.12.2013 23:20 -3,3 C 89 % 1014,9 hPa 0,0 l/m 0,6 km/h (0 Bft) O 90 -4,8 C -3,5 C 2,7 km/h (1 Bft)
23.12.2013 23:25 -2,9 C 89 % 1014,9 hPa 0,0 l/m 0,6 km/h (0 Bft) NO 45 -4,5 C -3,3 C 0,0 km/h (0 Bft)
23.12.2013 23:30 -3,2 C 89 % 1014,9 hPa 0,0 l/m 0,2 km/h (0 Bft) O-SO 112 -4,7 C -3,2 C 0,0 km/h (0 Bft)
23.12.2013 23:35 -3,4 C 89 % 1014,9 hPa 0,0 l/m 0,2 km/h (0 Bft) SO 135 -4,9 C -3,3 C 0,0 km/h (0 Bft)
23.12.2013 23:40 -3,3 C 89 % 1014,6 hPa 0,0 l/m 0,5 km/h (0 Bft) S 180 -4,8 C -3,4 C 0,0 km/h (0 Bft)
23.12.2013 23:45 -3,8 C 89 % 1014,6 hPa 0,0 l/m 0,3 km/h (0 Bft) S 180 -5,3 C -3,5 C 0,0 km/h (0 Bft)
23.12.2013 23:50 -3,5 C 89 % 1014,6 hPa 0,0 l/m 0,2 km/h (0 Bft) O 90 -5,0 C -3,3 C 0,0 km/h (0 Bft)
23.12.2013 23:55 -3,2 C 89 % 1014,6 hPa 0,0 l/m 0,5 km/h (0 Bft) N-NO 22 -4,7 C -3,3 C 0,0 km/h (0 Bft)
_ Min-Zeit 23:45 14:15 23:55 - 23:10 - - 23:45 23:15 23:55
Minimum _ -3,8 C 60 % 1014,6 hPa - 0,0 km/h (0 Bft) - - -5,3 C -3,6 C 0,0 km/h (0 Bft)
_ Max-Zeit 14:10 23:55 10:55 23:55 16:35 - - 10:30 16:10 20:10
Maximum _ 7,9 C 89 % 1023,7 hPa 0,0 l/m 6,3 km/h
O-SO (2 Bft)
- - 1,3 C 4,1 C 10,6 km/h
N (2 Bft)
Durchschnitt _ 2,7 C 76 % 1020,9 hPa #0,0 l/m 0,3 km/h (0 Bft) O-SO - -1,1 C -0,5 C 0,5 km/h (0 Bft)